Showing default

EXPLORER 38 (RAE-A), 3307

Orbit data source: Space-Track

EXPLORER 38 (RAE-A), 3307 is a payload satellite owned by GSFC (US) that was launched on Thu, 04 Jul 1968 UTC via a THOR DELTA J launch vehicle from the Air Force Western Test Range (AFWTR). Payload-class satellites include a variety of spacecraft equipped with specific instruments for various scientific and technological missions. These include communications satellites like Starlink; space stations such as the ISS; scientific satellites like the Hubble; Earth observation satellites from companies like Planet Labs, Umbra, and HawkEye 360; GPS; miniature CubeSats for education and research; and military/defense satellites.

Loading next visibility...
Identifier
3307, 1968-055A
Orbit
Active
Last TLE update
1 day ago
Origin
Manufacturer
GSFC/FAIRH
Mission
Civil Astronomy
Bus & Motor
RAE, Unknown motor
Mass
189 kg wet, 189 kg dry
Launch date (UTC)
1968-07-04 (57 years ago)
Launch vehicle
THOR DELTA J
Launch site
Air Force Western Test Range (AFWTR)
Object type
Payload
Rocket body
Debris
Shape & HBR
Cyl + 4 Rod, 228 m
Radar Cross Section
0.884 m², Large (>1 m²)

Expand to show TLE details & history

TLE from 1 day ago
0 EXPLORER 38 (RAE-A)
1  3307U 68055A   25183.31726462 -.00000010  00000-0  00000+0 0  9998
2  3307 120.8576 339.5849 0005201 192.7289 167.3182  6.42454574337058
Epoch: 2025-07-02T07:36Z
TLE epoch observation values (Epoch: 2025-07-02T07:36:51.663Z)
Latitude
0.00001°
Longitude
-55.23047°
Altitude
5,851.8 km
Speed
5.708 km/s
True Right ascension
22h 38m 20s
True Declination
0° 00' 00"
Sunlit
Object was in daylight at epoch
Visualization orbit readout
Latitude
-53.74027°
Longitude
71.11474°
Altitude
5,860.852 km
Speed
5.709 km/s
Apparent Right ascension
09h 01m 23s
Apparent Declination
-55° 10' 59"
Sunlit
Object is in daylight
Visualization observer readout
Local Sidereal Time
00:07:47
Azimuth
132.336° SE
Elevation
-55.86°
Doppler factor
1
Orbital elements
Apogee altitude
5,850.728 km
Perigee altitude
5,838.014 km
Semi-major axis
12,222.508 km
Eccentricity
0.00052
Inclination
120.8576°
RAAN
339.5849°
Arg. of periapsis
192.7289°
True anomaly
Unknown
Mean anomaly
167.3182°
Eccentric anomaly
Unknown
Mean motion
1.60621 °/min
Orbital period
224.13 mins
BSTAR
0
Loading maneuver chart data...
Loading SW <> Apogee altitude chart data...
Loading historical data...
Loading historical data...
Loading historical data...
Loading historical data...
Loading historical data...
Loading historical data...
Loading historical data...

EXPLORER 38 (RAE-A) Visibility forecast

Observer location: undefined°, undefined°

Span
Click to sort rows by Start time (UTC) header in descending order
Start Az.
Max El. time (UTC)
Max El. Az.
Max El.
End time (UTC)
End Az.
51 mins2025-07-03 22:05:08.944Z47.106° ENE2025-07-03 22:31:08.944Z120.152° SE35.257°2025-07-03 22:56:08.944Z187.551° SSW
53 mins2025-07-04 01:32:08.944Z43.4° NE2025-07-04 01:58:08.944Z326.471° NNW43.643°2025-07-04 02:25:08.944Z248.557° W
49 mins2025-07-04 04:55:08.944Z71.204° E2025-07-04 05:19:08.944Z5.636° NNE38.416°2025-07-04 05:44:08.944Z298.827° NW
54 mins2025-07-04 08:15:08.944Z126.822° SE2025-07-04 08:41:08.944Z66.46° ENE44.941°2025-07-04 09:09:08.944Z318.506° NNW
31 mins2025-07-04 11:50:08.944Z194.685° SSW2025-07-04 12:11:08.944Z249.28° W26.143°2025-07-04 12:21:08.944Z278.86° WNW
|